| time (UTC) | temp C | wind direction | speed KPH | gust KPH | rain 1hr cm | rain 24hr cm | rain mn cm | humidity % | barometer mb |
| 20260507093745 | 10 | 167 | 0.0 | 0.0 | 0.00 | 0.00 | 0.00 | 77 | 1025.6 |
| 20260507093244 | 10 | 172 | 0.0 | 0.0 | 0.00 | 0.00 | 0.00 | 76 | 1025.6 |
| 20260507092741 | 11 | 154 | 0.0 | 0.0 | 0.00 | 0.00 | 0.00 | 76 | 1025.6 |
| 20260507092237 | 11 | 177 | 0.0 | 0.0 | 0.00 | 0.00 | 0.00 | 75 | 1025.7 |
| 20260507091734 | 11 | 136 | 0.0 | 0.0 | 0.00 | 0.00 | 0.00 | 76 | 1025.7 |
| 20260507091230 | 11 | 191 | 0.0 | 4.8 | 0.00 | 0.00 | 0.00 | 76 | 1025.8 |
| 20260507090726 | 11 | 208 | 0.0 | 0.0 | 0.00 | 0.00 | 0.00 | 76 | 1025.7 |
| 20260507090222 | 11 | 198 | 0.0 | 0.0 | 0.00 | 0.00 | 0.00 | 77 | 1025.7 |
| 20260507085720 | 11 | 168 | 0.0 | 0.0 | 0.00 | 0.00 | 0.00 | 77 | 1025.6 |
| 20260507085217 | 11 | 193 | 0.0 | 0.0 | 0.00 | 0.00 | 0.00 | 77 | 1025.5 |
| 20260507084714 | 11 | 197 | 0.0 | 0.0 | 0.00 | 0.00 | 0.00 | 77 | 1025.6 |
| 20260507084210 | 11 | 187 | 0.0 | 4.8 | 0.00 | 0.00 | 0.00 | 77 | 1025.7 |
| 20260507083708 | 11 | 191 | 0.0 | 0.0 | 0.00 | 0.00 | 0.00 | 77 | 1025.7 |
| 20260507083204 | 11 | 163 | 0.0 | 0.0 | 0.00 | 0.00 | 0.00 | 78 | 1025.7 |
| 20260507082700 | 11 | 190 | 0.0 | 4.8 | 0.00 | 0.00 | 0.00 | 78 | 1025.9 |
| 20260507082156 | 11 | 179 | 0.0 | 0.0 | 0.00 | 0.00 | 0.00 | 79 | 1025.8 |
| 20260507081653 | 11 | 152 | 0.0 | 0.0 | 0.00 | 0.00 | 0.00 | 79 | 1025.7 |
| 20260507081149 | 11 | 208 | 0.0 | 0.0 | 0.00 | 0.00 | 0.00 | 79 | 1025.6 |
| 20260507080646 | 11 | 216 | 0.0 | 0.0 | 0.00 | 0.00 | 0.00 | 79 | 1025.6 |
| 20260507080142 | 11 | 215 | 0.0 | 0.0 | 0.00 | 0.00 | 0.00 | 79 | 1025.7 |
| 20260507075637 | 11 | 226 | 0.0 | 0.0 | 0.00 | 0.00 | 0.00 | 79 | 1025.7 |
| 20260507075134 | 11 | 244 | 0.0 | 0.0 | 0.00 | 0.00 | 0.00 | 79 | 1025.8 |
| 20260507074631 | 11 | 152 | 0.0 | 0.0 | 0.00 | 0.00 | 0.00 | 79 | 1025.8 |
| 20260507074129 | 11 | 206 | 0.0 | 0.0 | 0.00 | 0.00 | 0.00 | 79 | 1025.7 |
| 20260507073625 | 11 | 204 | 0.0 | 0.0 | 0.00 | 0.00 | 0.00 | 79 | 1025.7 |
| 20260507073121 | 11 | 179 | 0.0 | 4.8 | 0.00 | 0.00 | 0.00 | 79 | 1025.7 |
| 20260507072619 | 11 | 197 | 0.0 | 0.0 | 0.00 | 0.00 | 0.00 | 78 | 1025.7 |
| 20260507072116 | 11 | 171 | 0.0 | 4.8 | 0.00 | 0.00 | 0.00 | 78 | 1025.6 |
| 20260507071613 | 11 | 191 | 0.0 | 4.8 | 0.00 | 0.00 | 0.00 | 78 | 1025.7 |
| 20260507071110 | 12 | 160 | 0.0 | 0.0 | 0.00 | 0.00 | 0.00 | 77 | 1025.6 |
| 20260507070607 | 12 | 245 | 0.0 | 0.0 | 0.00 | 0.00 | 0.00 | 77 | 1025.5 |
| 20260507070104 | 12 | 202 | 0.0 | 0.0 | 0.00 | 0.00 | 0.00 | 77 | 1025.7 |
| 20260507065600 | 12 | 219 | 0.0 | 0.0 | 0.00 | 0.00 | 0.00 | 78 | 1025.6 |
| 20260507065057 | 12 | 172 | 0.0 | 0.0 | 0.00 | 0.00 | 0.00 | 78 | 1025.7 |
| 20260507064555 | 12 | 211 | 0.0 | 0.0 | 0.00 | 0.00 | 0.00 | 77 | 1025.7 |
| 20260507064054 | 12 | 200 | 0.0 | 0.0 | 0.00 | 0.00 | 0.00 | 77 | 1025.8 |
| 20260507063550 | 12 | 219 | 0.0 | 4.8 | 0.00 | 0.00 | 0.00 | 77 | 1025.7 |
| 20260507063048 | 12 | 209 | 0.0 | 0.0 | 0.00 | 0.00 | 0.00 | 77 | 1025.7 |
| 20260507062544 | 12 | 219 | 0.0 | 0.0 | 0.00 | 0.00 | 0.00 | 77 | 1025.6 |
| 20260507062042 | 12 | 225 | 0.0 | 0.0 | 0.00 | 0.00 | 0.00 | 77 | 1025.8 |
| 20260507061539 | 12 | 243 | 0.0 | 0.0 | 0.00 | 0.00 | 0.00 | 77 | 1025.8 |
| 20260507061037 | 12 | 149 | 0.0 | 0.0 | 0.00 | 0.00 | 0.00 | 77 | 1025.6 |
| 20260507060535 | 12 | 229 | 0.0 | 0.0 | 0.00 | 0.00 | 0.00 | 77 | 1025.6 |
| 20260507060032 | 12 | 301 | 0.0 | 0.0 | 0.00 | 0.00 | 0.00 | 76 | 1025.6 |
| 20260507055531 | 12 | 222 | 0.0 | 0.0 | 0.00 | 0.00 | 0.00 | 76 | 1025.5 |
| 20260507055028 | 12 | 306 | 0.0 | 0.0 | 0.00 | 0.00 | 0.00 | 76 | 1025.8 |
| 20260507054524 | 12 | 259 | 0.0 | 0.0 | 0.00 | 0.00 | 0.00 | 76 | 1025.7 |
| 20260507054021 | 12 | 281 | 0.0 | 0.0 | 0.00 | 0.00 | 0.00 | 75 | 1025.7 |
| 20260507053519 | 12 | 246 | 0.0 | 0.0 | 0.00 | 0.00 | 0.00 | 75 | 1025.6 |
| 20260507053018 | 12 | 240 | 0.0 | 0.0 | 0.00 | 0.00 | 0.00 | 75 | 1025.7 |
| 20260507052515 | 12 | 298 | 1.6 | 4.8 | 0.00 | 0.00 | 0.00 | 74 | 1025.7 |
| 20260507052011 | 12 | 293 | 0.0 | 4.8 | 0.00 | 0.00 | 0.00 | 73 | 1025.6 |
| 20260507051509 | 12 | 233 | 0.0 | 4.8 | 0.00 | 0.00 | 0.00 | 73 | 1025.7 |
| 20260507051006 | 13 | 284 | 0.0 | 0.0 | 0.00 | 0.00 | 0.00 | 72 | 1025.8 |
| 20260507050502 | 13 | 301 | 4.8 | 8.0 | 0.00 | 0.00 | 0.00 | 72 | 1025.8 |
| 20260507045959 | 13 | 275 | 1.6 | 4.8 | 0.00 | 0.00 | 0.00 | 72 | 1025.7 |
| 20260507045455 | 13 | 252 | 0.0 | 4.8 | 0.00 | 0.00 | 0.00 | 72 | 1025.8 |
| 20260507044953 | 13 | 234 | 0.0 | 0.0 | 0.00 | 0.00 | 0.00 | 71 | 1025.7 |
| 20260507044450 | 13 | 211 | 0.0 | 0.0 | 0.00 | 0.00 | 0.00 | 71 | 1025.8 |
| 20260507043946 | 13 | 278 | 1.6 | 8.0 | 0.00 | 0.00 | 0.00 | 71 | 1025.8 |
| 20260507043442 | 13 | 247 | 0.0 | 0.0 | 0.00 | 0.00 | 0.00 | 71 | 1025.6 |
| 20260507042938 | 13 | 259 | 0.0 | 4.8 | 0.00 | 0.00 | 0.00 | 71 | 1025.7 |
| 20260507042436 | 13 | 261 | 0.0 | 4.8 | 0.00 | 0.00 | 0.00 | 71 | 1025.6 |
| 20260507041931 | 13 | 180 | 0.0 | 0.0 | 0.00 | 0.00 | 0.00 | 71 | 1025.7 |
| 20260507041428 | 13 | 237 | 0.0 | 0.0 | 0.00 | 0.00 | 0.00 | 71 | 1025.9 |
| 20260507040926 | 13 | 235 | 0.0 | 0.0 | 0.00 | 0.00 | 0.00 | 71 | 1025.5 |
| 20260507040421 | 13 | 205 | 0.0 | 0.0 | 0.00 | 0.00 | 0.00 | 70 | 1025.6 |
| 20260507035917 | 13 | 158 | 0.0 | 8.0 | 0.00 | 0.00 | 0.00 | 70 | 1025.6 |
| 20260507035414 | 13 | 126 | 0.0 | 8.0 | 0.00 | 0.00 | 0.00 | 70 | 1025.5 |
| 20260507034911 | 13 | 254 | 1.6 | 4.8 | 0.00 | 0.00 | 0.00 | 70 | 1025.5 |
| 20260507034407 | 13 | 203 | 0.0 | 0.0 | 0.00 | 0.00 | 0.00 | 70 | 1025.5 |
| 20260507033905 | 13 | 226 | 0.0 | 0.0 | 0.00 | 0.00 | 0.00 | 70 | 1025.5 |
| 20260507033403 | 13 | 215 | 0.0 | 0.0 | 0.00 | 0.00 | 0.00 | 69 | 1025.2 |
| 20260507032900 | 13 | 226 | 0.0 | 0.0 | 0.00 | 0.00 | 0.00 | 69 | 1025.4 |
| 20260507032357 | 13 | 322 | 0.0 | 11.3 | 0.00 | 0.00 | 0.00 | 69 | 1025.2 |
| 20260507031853 | 13 | 230 | 0.0 | 0.0 | 0.00 | 0.00 | 0.00 | 69 | 1025.2 |
| 20260507031350 | 13 | 207 | 0.0 | 0.0 | 0.00 | 0.00 | 0.00 | 69 | 1025.2 |
| 20260507030846 | 13 | 208 | 0.0 | 0.0 | 0.00 | 0.00 | 0.00 | 69 | 1025.1 |
| 20260507030344 | 13 | 221 | 0.0 | 0.0 | 0.00 | 0.00 | 0.00 | 69 | 1025.1 |
| 20260507025840 | 13 | 237 | 0.0 | 0.0 | 0.00 | 0.00 | 0.00 | 69 | 1025.1 |
| 20260507025338 | 13 | 222 | 0.0 | 0.0 | 0.00 | 0.00 | 0.00 | 69 | 1025.2 |
| 20260507024836 | 13 | 236 | 0.0 | 0.0 | 0.00 | 0.00 | 0.00 | 68 | 1025.2 |
| 20260507024333 | 14 | 206 | 0.0 | 0.0 | 0.00 | 0.00 | 0.00 | 68 | 1025.1 |
| 20260507023828 | 14 | 208 | 0.0 | 0.0 | 0.00 | 0.00 | 0.00 | 68 | 1025.1 |
| 20260507023325 | 14 | 209 | 0.0 | 0.0 | 0.00 | 0.00 | 0.00 | 68 | 1025.1 |
| 20260507022823 | 14 | 249 | 0.0 | 0.0 | 0.00 | 0.00 | 0.00 | 68 | 1025.1 |
| 20260507022319 | 14 | 233 | 0.0 | 4.8 | 0.00 | 0.00 | 0.00 | 68 | 1024.8 |
| 20260507021815 | 14 | 239 | 0.0 | 0.0 | 0.00 | 0.00 | 0.00 | 68 | 1024.9 |
| 20260507021311 | 14 | 208 | 0.0 | 0.0 | 0.00 | 0.00 | 0.00 | 68 | 1024.9 |
| 20260507020809 | 14 | 229 | 0.0 | 0.0 | 0.00 | 0.00 | 0.00 | 68 | 1025.0 |
| 20260507020305 | 15 | 269 | 0.0 | 0.0 | 0.00 | 0.00 | 0.00 | 68 | 1025.0 |
| 20260507015803 | 15 | 201 | 0.0 | 0.0 | 0.00 | 0.00 | 0.00 | 68 | 1024.8 |
| 20260507015300 | 15 | 232 | 0.0 | 0.0 | 0.00 | 0.00 | 0.00 | 67 | 1025.0 |
| 20260507014757 | 15 | 209 | 0.0 | 0.0 | 0.00 | 0.00 | 0.00 | 68 | 1025.0 |
| 20260507014253 | 15 | 270 | 3.2 | 8.0 | 0.00 | 0.00 | 0.00 | 67 | 1024.8 |
| 20260507013749 | 15 | 243 | 0.0 | 4.8 | 0.00 | 0.00 | 0.00 | 67 | 1024.8 |
| 20260507013247 | 15 | 254 | 0.0 | 0.0 | 0.00 | 0.00 | 0.00 | 67 | 1024.9 |
| 20260507012744 | 15 | 200 | 0.0 | 0.0 | 0.00 | 0.00 | 0.00 | 67 | 1024.9 |
| 20260507012245 | 15 | 241 | 0.0 | 0.0 | 0.00 | 0.00 | 0.00 | 67 | 1024.8 |
| 20260507011743 | 15 | 212 | 0.0 | 8.0 | 0.00 | 0.00 | 0.00 | 67 | 1024.8 |
| 20260507011239 | 15 | 250 | 0.0 | 4.8 | 0.00 | 0.00 | 0.00 | 66 | 1025.0 |
| 20260507010738 | 15 | 210 | 0.0 | 4.8 | 0.00 | 0.00 | 0.00 | 66 | 1025.0 |
| 20260507010235 | 15 | 211 | 0.0 | 0.0 | 0.00 | 0.00 | 0.00 | 66 | 1024.9 |
| 20260507005733 | 15 | 191 | 0.0 | 0.0 | 0.00 | 0.00 | 0.00 | 66 | 1025.0 |
| 20260507005229 | 15 | 234 | 0.0 | 4.8 | 0.00 | 0.00 | 0.00 | 65 | 1025.0 |
| 20260507004725 | 15 | 241 | 0.0 | 4.8 | 0.00 | 0.00 | 0.00 | 65 | 1025.1 |
| 20260507004223 | 15 | 220 | 1.6 | 11.3 | 0.00 | 0.00 | 0.00 | 66 | 1024.8 |
| 20260507003719 | 15 | 279 | 0.0 | 8.0 | 0.00 | 0.00 | 0.00 | 66 | 1024.9 |
| 20260507003214 | 15 | 292 | 1.6 | 8.0 | 0.00 | 0.00 | 0.00 | 65 | 1025.3 |
| 20260507002711 | 15 | 211 | 0.0 | 4.8 | 0.00 | 0.00 | 0.00 | 65 | 1025.0 |
| 20260507002207 | 15 | 242 | 0.0 | 4.8 | 0.00 | 0.00 | 0.00 | 65 | 1025.1 |
| 20260507001704 | 15 | 230 | 0.0 | 0.0 | 0.00 | 0.00 | 0.00 | 65 | 1025.0 |
| 20260507001201 | 15 | 302 | 6.4 | 16.1 | 0.00 | 0.00 | 0.00 | 65 | 1025.1 |
| 20260507000657 | 15 | 258 | 3.2 | 4.8 | 0.00 | 0.00 | 0.00 | 65 | 1024.8 |
| 20260507000153 | 15 | 292 | 0.0 | 4.8 | 0.00 | 0.00 | 0.00 | 65 | 1025.0 |
| 20260506235650 | 15 | 273 | 9.7 | 11.3 | 0.00 | 0.00 | 0.00 | 65 | 1025.0 |
| 20260506235145 | 16 | 223 | 0.0 | 4.8 | 0.00 | 0.00 | 0.00 | 64 | 1025.0 |
| 20260506234643 | 15 | 230 | 0.0 | 4.8 | 0.00 | 0.00 | 0.00 | 64 | 1024.9 |
| 20260506234140 | 15 | 197 | 0.0 | 0.0 | 0.00 | 0.00 | 0.00 | 63 | 1024.9 |
| 20260506233637 | 15 | 277 | 1.6 | 8.0 | 0.00 | 0.00 | 0.00 | 63 | 1025.0 |
| 20260506233134 | 15 | 313 | 0.0 | 8.0 | 0.00 | 0.00 | 0.00 | 64 | 1024.9 |
| 20260506232630 | 15 | 186 | 0.0 | 0.0 | 0.00 | 0.00 | 0.00 | 65 | 1025.2 |
| 20260506232125 | 15 | 211 | 0.0 | 0.0 | 0.00 | 0.00 | 0.00 | 66 | 1025.0 |
| 20260506231623 | 15 | 282 | 0.0 | 4.8 | 0.00 | 0.00 | 0.00 | 66 | 1025.1 |
| 20260506231121 | 15 | 260 | 3.2 | 11.3 | 0.00 | 0.00 | 0.00 | 66 | 1025.2 |
| 20260506230618 | 15 | 274 | 0.0 | 8.0 | 0.00 | 0.00 | 0.00 | 66 | 1025.2 |
| 20260506230115 | 15 | 287 | 3.2 | 11.3 | 0.00 | 0.00 | 0.00 | 66 | 1025.2 |
| 20260506225611 | 15 | 211 | 0.0 | 0.0 | 0.00 | 0.00 | 0.00 | 66 | 1025.1 |
| 20260506225108 | 15 | 310 | 0.0 | 0.0 | 0.00 | 0.00 | 0.00 | 66 | 1025.1 |
| 20260506224604 | 15 | 273 | 0.0 | 0.0 | 0.00 | 0.00 | 0.00 | 65 | 1025.2 |
| 20260506224101 | 15 | 203 | 0.0 | 0.0 | 0.00 | 0.00 | 0.00 | 64 | 1025.2 |
| 20260506223557 | 15 | 185 | 0.0 | 0.0 | 0.00 | 0.00 | 0.00 | 65 | 1025.3 |
| 20260506223053 | 15 | 207 | 0.0 | 0.0 | 0.00 | 0.00 | 0.00 | 66 | 1025.1 |
| 20260506222550 | 15 | 277 | 0.0 | 8.0 | 0.00 | 0.00 | 0.00 | 67 | 1025.4 |
| 20260506222047 | 15 | 293 | 4.8 | 8.0 | 0.00 | 0.00 | 0.00 | 67 | 1025.4 |
| 20260506221544 | 15 | 282 | 0.0 | 0.0 | 0.00 | 0.00 | 0.00 | 67 | 1025.3 |
| 20260506221042 | 14 | 299 | 0.0 | 0.0 | 0.00 | 0.00 | 0.00 | 67 | 1025.6 |
| 20260506220538 | 15 | 204 | 0.0 | 0.0 | 0.00 | 0.00 | 0.00 | 67 | 1025.4 |
| 20260506220034 | 14 | 335 | 6.4 | 8.0 | 0.00 | 0.00 | 0.00 | 67 | 1025.6 |
| 20260506215531 | 14 | 220 | 0.0 | 0.0 | 0.00 | 0.00 | 0.00 | 68 | 1025.6 |
| 20260506215026 | 14 | 279 | 0.0 | 0.0 | 0.00 | 0.00 | 0.00 | 68 | 1025.6 |
| 20260506214524 | 14 | 289 | 0.0 | 0.0 | 0.00 | 0.00 | 0.00 | 68 | 1025.5 |
| 20260506214021 | 14 | 252 | 1.6 | 4.8 | 0.00 | 0.00 | 0.00 | 68 | 1025.5 |
| 20260506213519 | 14 | 263 | 0.0 | 0.0 | 0.00 | 0.00 | 0.00 | 68 | 1025.5 |
| 20260506213016 | 14 | 294 | 0.0 | 8.0 | 0.00 | 0.00 | 0.00 | 68 | 1025.5 |
| 20260506212512 | 14 | 292 | 3.2 | 8.0 | 0.00 | 0.00 | 0.00 | 68 | 1025.5 |
| 20260506212007 | 14 | 297 | 0.0 | 0.0 | 0.00 | 0.00 | 0.00 | 68 | 1025.6 |
| 20260506211503 | 14 | 293 | 4.8 | 11.3 | 0.00 | 0.00 | 0.00 | 68 | 1025.4 |
| 20260506211001 | 15 | 229 | 0.0 | 0.0 | 0.00 | 0.00 | 0.00 | 68 | 1025.4 |
| 20260506210457 | 14 | 307 | 1.6 | 8.0 | 0.00 | 0.00 | 0.00 | 68 | 1025.5 |
| 20260506205954 | 15 | 292 | 3.2 | 11.3 | 0.00 | 0.00 | 0.00 | 67 | 1025.3 |
| 20260506205450 | 15 | 280 | 0.0 | 0.0 | 0.00 | 0.00 | 0.00 | 67 | 1025.3 |
| 20260506204946 | 15 | 246 | 0.0 | 0.0 | 0.00 | 0.00 | 0.00 | 68 | 1025.3 |
| 20260506204444 | 15 | 294 | 0.0 | 0.0 | 0.00 | 0.00 | 0.00 | 67 | 1025.3 |
| 20260506203941 | 15 | 295 | 0.0 | 0.0 | 0.00 | 0.00 | 0.00 | 69 | 1025.5 |
| 20260506203438 | 15 | 245 | 0.0 | 0.0 | 0.00 | 0.00 | 0.00 | 69 | 1025.4 |
| 20260506202935 | 15 | 224 | 0.0 | 0.0 | 0.00 | 0.00 | 0.00 | 69 | 1025.1 |
| 20260506202432 | 15 | 252 | 0.0 | 0.0 | 0.00 | 0.00 | 0.00 | 69 | 1024.9 |
| 20260506201929 | 15 | 238 | 0.0 | 0.0 | 0.00 | 0.00 | 0.00 | 69 | 1025.1 |
| 20260506201426 | 14 | 130 | 0.0 | 0.0 | 0.00 | 0.00 | 0.00 | 71 | 1025.2 |
| 20260506200923 | 14 | 235 | 0.0 | 0.0 | 0.00 | 0.00 | 0.00 | 72 | 1025.2 |
| 20260506200419 | 14 | 223 | 0.0 | 0.0 | 0.00 | 0.00 | 0.00 | 71 | 1025.4 |
| 20260506195916 | 14 | 214 | 0.0 | 0.0 | 0.00 | 0.00 | 0.00 | 73 | 1025.1 |
| 20260506195413 | 13 | 280 | 1.6 | 8.0 | 0.00 | 0.00 | 0.00 | 72 | 1025.1 |
| 20260506194909 | 14 | 243 | 0.0 | 0.0 | 0.00 | 0.00 | 0.00 | 72 | 1025.2 |
| 20260506194406 | 14 | 135 | 0.0 | 0.0 | 0.00 | 0.00 | 0.00 | 72 | 1025.1 |
| 20260506193903 | 14 | 228 | 0.0 | 0.0 | 0.00 | 0.00 | 0.00 | 72 | 1025.1 |
| 20260506193400 | 14 | 204 | 0.0 | 0.0 | 0.00 | 0.00 | 0.00 | 73 | 1024.9 |
| 20260506192856 | 13 | 231 | 0.0 | 0.0 | 0.00 | 0.00 | 0.00 | 73 | 1025.2 |
| 20260506192354 | 13 | 89 | 0.0 | 0.0 | 0.00 | 0.00 | 0.00 | 73 | 1025.0 |
| 20260506191851 | 14 | 222 | 0.0 | 0.0 | 0.00 | 0.00 | 0.00 | 73 | 1025.2 |
| 20260506191347 | 13 | 199 | 0.0 | 0.0 | 0.00 | 0.00 | 0.00 | 73 | 1025.0 |
| 20260506190844 | 13 | 254 | 0.0 | 4.8 | 0.00 | 0.00 | 0.00 | 74 | 1024.9 |
| 20260506190340 | 13 | 170 | 0.0 | 8.0 | 0.00 | 0.00 | 0.00 | 73 | 1025.0 |
| 20260506185837 | 13 | 229 | 0.0 | 4.8 | 0.00 | 0.00 | 0.00 | 73 | 1025.1 |
| 20260506185334 | 13 | 126 | 4.8 | 8.0 | 0.00 | 0.00 | 0.00 | 73 | 1025.0 |
| 20260506184831 | 13 | 183 | 0.0 | 4.8 | 0.00 | 0.00 | 0.00 | 73 | 1025.2 |
| 20260506184328 | 13 | 142 | 0.0 | 4.8 | 0.00 | 0.00 | 0.00 | 73 | 1025.1 |
| 20260506183826 | 13 | 181 | 0.0 | 0.0 | 0.00 | 0.00 | 0.00 | 73 | 1025.1 |
| 20260506183321 | 13 | 210 | 0.0 | 11.3 | 0.00 | 0.00 | 0.00 | 73 | 1025.0 |
| 20260506182819 | 13 | 271 | 0.0 | 8.0 | 0.00 | 0.00 | 0.00 | 73 | 1025.0 |
| 20260506182315 | 13 | 158 | 1.6 | 11.3 | 0.00 | 0.00 | 0.00 | 73 | 1024.8 |
| 20260506181813 | 13 | 153 | 0.0 | 0.0 | 0.00 | 0.00 | 0.00 | 73 | 1024.8 |
| 20260506181311 | 13 | 196 | 0.0 | 0.0 | 0.00 | 0.00 | 0.00 | 73 | 1025.0 |
| 20260506180808 | 13 | 202 | 0.0 | 0.0 | 0.00 | 0.00 | 0.00 | 74 | 1024.7 |
| 20260506180303 | 13 | 137 | 0.0 | 0.0 | 0.00 | 0.00 | 0.00 | 73 | 1024.9 |
| 20260506175800 | 13 | 176 | 0.0 | 8.0 | 0.00 | 0.00 | 0.00 | 73 | 1024.8 |
| 20260506175257 | 13 | 193 | 0.0 | 0.0 | 0.00 | 0.00 | 0.00 | 73 | 1024.9 |
| 20260506174754 | 14 | 208 | 0.0 | 0.0 | 0.00 | 0.00 | 0.00 | 73 | 1025.1 |
| 20260506174252 | 13 | 230 | 0.0 | 0.0 | 0.00 | 0.00 | 0.00 | 74 | 1024.8 |
| 20260506173749 | 13 | 121 | 1.6 | 4.8 | 0.00 | 0.00 | 0.00 | 74 | 1024.9 |
| 20260506173246 | 13 | 169 | 0.0 | 0.0 | 0.00 | 0.00 | 0.00 | 74 | 1024.9 |
| 20260506172742 | 13 | 172 | 0.0 | 0.0 | 0.00 | 0.00 | 0.00 | 74 | 1025.0 |
| 20260506172239 | 13 | 193 | 0.0 | 0.0 | 0.00 | 0.00 | 0.00 | 74 | 1025.0 |
| 20260506171737 | 13 | 215 | 0.0 | 0.0 | 0.00 | 0.00 | 0.00 | 74 | 1025.0 |
| 20260506171234 | 13 | 163 | 0.0 | 0.0 | 0.00 | 0.00 | 0.00 | 73 | 1025.1 |
| 20260506170731 | 13 | 192 | 0.0 | 8.0 | 0.00 | 0.00 | 0.00 | 74 | 1024.8 |
| 20260506170228 | 13 | 183 | 0.0 | 0.0 | 0.00 | 0.00 | 0.00 | 75 | 1025.0 |
| 20260506165726 | 13 | 225 | 0.0 | 0.0 | 0.00 | 0.00 | 0.00 | 75 | 1024.6 |
| 20260506165223 | 13 | 225 | 0.0 | 0.0 | 0.00 | 0.00 | 0.00 | 75 | 1024.7 |
| 20260506164720 | 13 | 231 | 0.0 | 0.0 | 0.00 | 0.00 | 0.00 | 74 | 1024.7 |
| 20260506164217 | 13 | 171 | 0.0 | 0.0 | 0.00 | 0.00 | 0.00 | 74 | 1024.5 |
| 20260506163714 | 13 | 191 | 0.0 | 0.0 | 0.00 | 0.00 | 0.00 | 75 | 1024.7 |
| 20260506163209 | 13 | 214 | 0.0 | 8.0 | 0.00 | 0.00 | 0.00 | 75 | 1024.5 |
| 20260506162705 | 13 | 167 | 0.0 | 0.0 | 0.00 | 0.00 | 0.00 | 75 | 1024.4 |
| 20260506162203 | 13 | 137 | 0.0 | 0.0 | 0.00 | 0.00 | 0.00 | 75 | 1024.4 |
| 20260506161700 | 13 | 183 | 0.0 | 0.0 | 0.00 | 0.00 | 0.00 | 76 | 1024.4 |
| 20260506161156 | 13 | 199 | 0.0 | 0.0 | 0.00 | 0.00 | 0.00 | 78 | 1024.4 |
| 20260506160654 | 12 | 152 | 0.0 | 4.8 | 0.00 | 0.00 | 0.00 | 78 | 1024.4 |
| 20260506160151 | 12 | 194 | 0.0 | 0.0 | 0.00 | 0.00 | 0.00 | 78 | 1024.9 |
| 20260506155649 | 12 | 140 | 0.0 | 0.0 | 0.00 | 0.00 | 0.00 | 78 | 1024.8 |
| 20260506155146 | 12 | 171 | 0.0 | 0.0 | 0.00 | 0.00 | 0.00 | 78 | 1024.8 |
| 20260506153248 | 12 | 163 | 0.0 | 0.0 | 0.00 | 0.00 | 0.00 | 80 | 1024.3 |
| 20260506152745 | 12 | 122 | 0.0 | 8.0 | 0.00 | 0.00 | 0.00 | 80 | 1024.4 |
| 20260506152242 | 12 | 132 | 3.2 | 8.0 | 0.00 | 0.00 | 0.00 | 80 | 1024.4 |
| 20260506151741 | 12 | 159 | 0.0 | 0.0 | 0.00 | 0.00 | 0.00 | 80 | 1024.4 |
| 20260506151237 | 12 | 197 | 0.0 | 0.0 | 0.00 | 0.00 | 0.00 | 80 | 1024.5 |
| 20260506150734 | 12 | 145 | 0.0 | 8.0 | 0.00 | 0.00 | 0.00 | 79 | 1024.6 |
| 20260506150231 | 12 | 208 | 0.0 | 0.0 | 0.00 | 0.00 | 0.00 | 79 | 1024.4 |
| 20260506145728 | 12 | 222 | 0.0 | 4.8 | 0.00 | 0.00 | 0.00 | 79 | 1024.5 |
| 20260506145224 | 12 | 201 | 0.0 | 0.0 | 0.00 | 0.00 | 0.00 | 79 | 1024.5 |
| 20260506144722 | 12 | 220 | 0.0 | 0.0 | 0.00 | 0.00 | 0.00 | 79 | 1024.6 |
| 20260506144219 | 12 | 239 | 0.0 | 4.8 | 0.00 | 0.00 | 0.00 | 80 | 1024.2 |
| 20260506143716 | 12 | 214 | 0.0 | 4.8 | 0.00 | 0.00 | 0.00 | 79 | 1024.3 |
| 20260506143214 | 12 | 242 | 0.0 | 0.0 | 0.00 | 0.00 | 0.00 | 80 | 1024.0 |
| 20260506142712 | 12 | 122 | 0.0 | 4.8 | 0.00 | 0.00 | 0.00 | 79 | 1024.0 |
| 20260506142210 | 12 | 177 | 0.0 | 0.0 | 0.00 | 0.00 | 0.00 | 79 | 1024.3 |
| 20260506141708 | 12 | 169 | 0.0 | 8.0 | 0.00 | 0.00 | 0.00 | 79 | 1024.2 |
| 20260506141206 | 12 | 117 | 0.0 | 4.8 | 0.00 | 0.00 | 0.00 | 79 | 1024.3 |
| 20260506140703 | 12 | 126 | 0.0 | 0.0 | 0.00 | 0.00 | 0.00 | 78 | 1024.5 |
| 20260506140200 | 12 | 204 | 0.0 | 0.0 | 0.00 | 0.00 | 0.00 | 78 | 1024.3 |
| 20260506135657 | 12 | 142 | 0.0 | 4.8 | 0.00 | 0.00 | 0.00 | 79 | 1024.1 |
| 20260506135153 | 12 | 164 | 0.0 | 0.0 | 0.00 | 0.00 | 0.00 | 79 | 1024.3 |
| 20260506134650 | 12 | 228 | 0.0 | 0.0 | 0.00 | 0.00 | 0.00 | 79 | 1024.2 |
| 20260506134146 | 12 | 207 | 0.0 | 0.0 | 0.00 | 0.00 | 0.00 | 79 | 1024.0 |
| 20260506133643 | 12 | 240 | 3.2 | 8.0 | 0.00 | 0.00 | 0.00 | 80 | 1024.2 |
| 20260506133140 | 12 | 218 | 0.0 | 4.8 | 0.00 | 0.00 | 0.00 | 80 | 1024.2 |
| 20260506132637 | 12 | 189 | 0.0 | 0.0 | 0.00 | 0.00 | 0.00 | 80 | 1024.1 |
| 20260506132134 | 12 | 130 | 0.0 | 4.8 | 0.00 | 0.00 | 0.00 | 80 | 1023.7 |
| 20260506131632 | 12 | 212 | 0.0 | 8.0 | 0.00 | 0.00 | 0.00 | 81 | 1023.6 |
| 20260506131128 | 12 | 235 | 0.0 | 0.0 | 0.00 | 0.00 | 0.00 | 81 | 1023.7 |
| 20260506130625 | 12 | 180 | 0.0 | 0.0 | 0.00 | 0.00 | 0.00 | 82 | 1023.6 |
| 20260506130122 | 12 | 128 | 0.0 | 0.0 | 0.00 | 0.00 | 0.00 | 82 | 1023.7 |
| 20260506125620 | 12 | 151 | 0.0 | 0.0 | 0.00 | 0.00 | 0.00 | 82 | 1023.7 |
| 20260506125118 | 12 | 147 | 0.0 | 0.0 | 0.00 | 0.00 | 0.00 | 82 | 1023.6 |
| 20260506124615 | 12 | 212 | 0.0 | 0.0 | 0.00 | 0.00 | 0.00 | 82 | 1023.5 |
| 20260506124113 | 12 | 192 | 0.0 | 0.0 | 0.00 | 0.00 | 0.00 | 82 | 1023.6 |
| 20260506123610 | 12 | 208 | 0.0 | 0.0 | 0.00 | 0.00 | 0.00 | 82 | 1023.6 |
| 20260506123109 | 12 | 177 | 0.0 | 0.0 | 0.00 | 0.00 | 0.00 | 82 | 1023.1 |
| 20260506122605 | 12 | 144 | 0.0 | 0.0 | 0.00 | 0.00 | 0.00 | 82 | 1023.4 |
| 20260506122103 | 12 | 214 | 0.0 | 0.0 | 0.00 | 0.00 | 0.00 | 82 | 1023.4 |
| 20260506121601 | 12 | 156 | 0.0 | 0.0 | 0.00 | 0.00 | 0.00 | 82 | 1023.4 |
| 20260506121056 | 12 | 137 | 0.0 | 0.0 | 0.00 | 0.00 | 0.00 | 82 | 1023.4 |
| 20260506120555 | 12 | 146 | 0.0 | 0.0 | 0.00 | 0.00 | 0.00 | 82 | 1023.2 |
| 20260506120051 | 12 | 211 | 0.0 | 0.0 | 0.00 | 0.00 | 0.00 | 82 | 1023.2 |
| 20260506115549 | 12 | 190 | 0.0 | 0.0 | 0.00 | 0.00 | 0.00 | 82 | 1023.2 |
| 20260506115048 | 12 | 198 | 0.0 | 0.0 | 0.00 | 0.00 | 0.00 | 81 | 1023.1 |
| 20260506114545 | 12 | 197 | 0.0 | 0.0 | 0.00 | 0.00 | 0.00 | 81 | 1023.0 |
| 20260506114043 | 12 | 202 | 0.0 | 0.0 | 0.00 | 0.00 | 0.00 | 81 | 1023.1 |
| 20260506113541 | 12 | 209 | 0.0 | 0.0 | 0.00 | 0.00 | 0.00 | 80 | 1023.2 |
| 20260506113038 | 12 | 250 | 0.0 | 0.0 | 0.00 | 0.00 | 0.00 | 80 | 1023.3 |
| 20260506112534 | 12 | 229 | 0.0 | 0.0 | 0.00 | 0.00 | 0.00 | 80 | 1023.4 |
| 20260506112032 | 12 | 183 | 0.0 | 0.0 | 0.00 | 0.00 | 0.00 | 80 | 1023.1 |
| 20260506111530 | 12 | 192 | 0.0 | 0.0 | 0.00 | 0.00 | 0.00 | 79 | 1023.2 |
| 20260506111027 | 12 | 220 | 0.0 | 0.0 | 0.00 | 0.00 | 0.00 | 79 | 1022.9 |
| 20260506110524 | 12 | 235 | 0.0 | 0.0 | 0.00 | 0.00 | 0.00 | 79 | 1023.0 |
| 20260506110021 | 12 | 208 | 0.0 | 0.0 | 0.00 | 0.00 | 0.00 | 79 | 1023.1 |
| 20260506105517 | 12 | 191 | 0.0 | 0.0 | 0.00 | 0.00 | 0.00 | 79 | 1022.8 |
| 20260506105015 | 12 | 238 | 0.0 | 0.0 | 0.00 | 0.00 | 0.00 | 78 | 1023.0 |
| 20260506104513 | 12 | 229 | 0.0 | 0.0 | 0.00 | 0.00 | 0.00 | 78 | 1022.9 |
| 20260506104010 | 12 | 212 | 0.0 | 0.0 | 0.00 | 0.00 | 0.00 | 78 | 1022.7 |
| 20260506103507 | 12 | 218 | 0.0 | 0.0 | 0.00 | 0.00 | 0.00 | 78 | 1022.7 |
| 20260506103004 | 12 | 237 | 0.0 | 0.0 | 0.00 | 0.00 | 0.00 | 78 | 1022.7 |
| 20260506102503 | 12 | 225 | 0.0 | 0.0 | 0.00 | 0.00 | 0.00 | 78 | 1022.8 |
| 20260506101959 | 12 | 246 | 0.0 | 0.0 | 0.00 | 0.00 | 0.00 | 78 | 1022.7 |
| 20260506101455 | 12 | 209 | 0.0 | 0.0 | 0.00 | 0.00 | 0.00 | 78 | 1022.6 |
| 20260506100953 | 12 | 251 | 0.0 | 0.0 | 0.00 | 0.00 | 0.00 | 78 | 1022.6 |
| 20260506100451 | 12 | 220 | 0.0 | 0.0 | 0.00 | 0.00 | 0.00 | 78 | 1022.4 |
| 20260506095949 | 12 | 191 | 0.0 | 0.0 | 0.00 | 0.00 | 0.00 | 78 | 1022.4 |
| 20260506095447 | 12 | 189 | 0.0 | 0.0 | 0.00 | 0.00 | 0.00 | 78 | 1022.3 |
| 20260506094943 | 12 | 193 | 0.0 | 0.0 | 0.00 | 0.00 | 0.00 | 78 | 1022.3 |
| 20260506094442 | 12 | 231 | 0.0 | 0.0 | 0.00 | 0.00 | 0.00 | 78 | 1022.4 |
| 20260506093939 | 12 | 229 | 0.0 | 0.0 | 0.00 | 0.00 | 0.00 | 77 | 1022.4 |